Location: Ammerl�gen
(47.2167°N, 9.6000°E)
Time: 16:02:34
(UTC+00:00)

Genesis I - Pass Details

Date: 21 April 2021
Orbit: 483 x 537 km, 64.5° (Epoch: 06 May)

Event Time Altitude Azimuth Distance (km) Brightness Sun altitude
Rises 19:25:53 0° 326° (NW) 2,670 8.2 -11.1°
Reaches altitude 10° 19:28:10 10° 333° (NNW) 1,784 6.9 -11.4°
Maximum altitude 19:32:00 43° 46° (NE) 759 3.9 -11.9°
Enters shadow 19:34:35 19° 110° (ESE) 1,328 4.7 -12.3°
